TimeMST,TemperatureF,Dew PointF,Humidity,Sea Level PressureIn,VisibilityMPH,Wind Direction,Wind SpeedMPH,Gust SpeedMPH,PrecipitationIn,Events,Conditions,WindDirDegrees,DateUTC
12:56 AM,54.0,37.0,53,29.81,10.0,ESE,9.2,-,N/A,,Clear,120,2013-09-25 07:56:00
1:56 AM,53.1,36.0,52,29.79,10.0,Calm,Calm,-,N/A,,Clear,0,2013-09-25 08:56:00
2:56 AM,48.9,36.0,61,29.80,10.0,South,4.6,-,N/A,,Clear,180,2013-09-25 09:56:00
3:56 AM,51.1,36.0,56,29.79,10.0,SE,5.8,-,N/A,,Clear,140,2013-09-25 10:56:00
4:56 AM,51.1,36.0,56,29.77,10.0,SE,8.1,-,N/A,,Clear,130,2013-09-25 11:56:00
5:56 AM,50.0,35.1,57,29.78,10.0,SSE,4.6,-,N/A,,Clear,150,2013-09-25 12:56:00
6:56 AM,50.0,35.1,57,29.80,10.0,ESE,3.5,-,N/A,,Clear,110,2013-09-25 13:56:00
7:56 AM,57.0,36.0,45,29.79,10.0,ESE,5.8,-,N/A,,Clear,120,2013-09-25 14:56:00
8:56 AM,68.0,36.0,31,29.77,10.0,SE,11.5,-,N/A,,Clear,130,2013-09-25 15:56:00
9:56 AM,78.1,33.1,19,29.72,10.0,SSW,19.6,27.6,N/A,,Clear,200,2013-09-25 16:56:00
10:56 AM,81.0,37.0,21,29.70,10.0,SSW,21.9,32.2,N/A,,Clear,200,2013-09-25 17:56:00
11:56 AM,82.0,34.0,18,29.68,10.0,South,26.5,-,N/A,,Clear,190,2013-09-25 18:56:00
12:56 PM,82.0,28.0,14,29.65,10.0,SSW,26.5,33.4,N/A,,Clear,210,2013-09-25 19:56:00
1:56 PM,82.0,27.0,13,29.63,10.0,SSW,24.2,33.4,N/A,,Clear,200,2013-09-25 20:56:00
2:56 PM,82.0,27.0,13,29.62,10.0,SSW,24.2,34.5,N/A,,Clear,200,2013-09-25 21:56:00
3:56 PM,81.0,30.0,16,29.60,10.0,South,23.0,32.2,N/A,,Clear,190,2013-09-25 22:56:00
4:56 PM,79.0,28.9,16,29.61,10.0,South,23.0,32.2,N/A,,Clear,190,2013-09-25 23:56:00
5:56 PM,73.9,28.9,19,29.63,10.0,South,17.3,27.6,N/A,,Clear,190,2013-09-26 00:56:00
6:56 PM,70.0,28.0,21,29.65,10.0,SSW,13.8,20.7,N/A,,Clear,200,2013-09-26 01:56:00
7:56 PM,62.1,27.0,26,29.67,10.0,SSW,5.8,-,N/A,,Clear,200,2013-09-26 02:56:00
8:56 PM,61.0,28.0,29,29.64,10.0,SE,3.5,-,N/A,,Clear,140,2013-09-26 03:56:00
9:56 PM,55.9,28.9,36,29.63,10.0,SSW,5.8,-,N/A,,Clear,200,2013-09-26 04:56:00
10:56 PM,64.0,28.0,26,29.60,10.0,South,11.5,-,N/A,,Clear,190,2013-09-26 05:56:00
11:56 PM,60.1,30.0,32,29.62,10.0,South,11.5,-,N/A,,Clear,170,2013-09-26 06:56:00